Regional Weather Roundup
Issued by NWS

Home | Current Version | Previous Version | Text Only | Print | Product List | Glossary Off
Versions: 1 2 3 4 5 6 7 8 9 10 11 12 13 14 15 16 17 18 19 20 21 22 23 24 25 26 27 28

000
ASUS45 KCYS 250010
RWRWY

WYOMING REGIONAL WEATHER ROUNDUP
NATIONAL WEATHER SERVICE CHEYENNE WY
600 PM MDT WED AUG 24 2016

NOTE:  "FAIR" INDICATES FEW OR NO CLOUDS BELOW 12,000 FEET
WITH NO SIGNIFICANT WEATHER AND/OR OBSTRUCTIONS TO VISIBILITY.

WYZ001-250100-
YELLOWSTONE NATIONAL PARK

CITY           SKY/WX    TMP DP  RH WIND       PRES   REMARKS
LK YELLOWSTONE   N/A     43  42  97 W3        30.38S
6HR MIN TEMP:  40; 6HR MAX TEMP:  61; 6HR PCP:  0.10;

W YELLOWSTONE  NOT AVBL

$$
WYZ002>013-054>058-071-098>099-250100-
NORTHERN WYOMING

CITY           SKY/WX    TMP DP  RH WIND       PRES   REMARKS
JACKSON        NOT AVBL
CODY           CLOUDY    52  45  76 N12G17    30.33R
GREYBULL       FAIR      69  39  33 NW30G36   30.19R
6HR MIN TEMP:  67; 6HR MAX TEMP:  75;

WORLAND        FAIR      69  39  33 N22G29    30.18R
6HR MIN TEMP:  67; 6HR MAX TEMP:  75;

SHERIDAN       CLOUDY    63  44  50 NW14      30.26R
6HR MIN TEMP:  63; 6HR MAX TEMP:  70;

BUFFALO        CLOUDY    61  40  45 NW15G24   30.29R
6HR MIN TEMP:  61; 6HR MAX TEMP:  68;

GILLETTE       CLOUDY    66  41  40 N16       30.22R
6HR MIN TEMP:  64; 6HR MAX TEMP:  70;

HULETT         CLOUDY    64  41  42 N14       30.23R
NEWCASTLE      FAIR      70  34  26 NW12      30.18R

$$
WYZ014>020-022>026-101>103-250100-
CENTRAL WYOMING

CITY           SKY/WX    TMP DP  RH WIND       PRES   REMARKS
BIG PINEY      FAIR      70  16  12 SW6       30.18S
6HR MIN TEMP:  64; 6HR MAX TEMP:  73;

PINEDALE       FAIR      70  12  11 SE3       30.20F
DUBOIS         MOCLDY    59  30  33 SE16      30.26R
LANDER         FAIR      71  34  25 N6        30.18R
6HR MIN TEMP:  63; 6HR MAX TEMP:  73;

RIVERTON       FAIR      70  33  25 N15G23    30.19S
6HR MIN TEMP:  63; 6HR MAX TEMP:  72;

CASPER         FAIR      72  34  24 NE15      30.19S
6HR MIN TEMP:  63; 6HR MAX TEMP:  75;

DOUGLAS        FAIR      72  35  25 E12       30.18S
6HR MIN TEMP:  68; 6HR MAX TEMP:  75;


$$
WYZ021-027>030-104>119-250100-
SOUTHERN WYOMING

CITY           SKY/WX    TMP DP  RH WIND       PRES   REMARKS
EVANSTON       FAIR      69   9   9 W14G24    30.24S
6HR MIN TEMP:  69; 6HR MAX TEMP:  73;

FORT BRIDGER   FAIR      73  10   9 W17G23    30.25S
ROCK SPRINGS   NOT AVBL
DIXON          FAIR      73  28  18 S5G18     30.18F
RAWLINS        CLOUDY    67  36  31 SE12      30.20R
6HR MIN TEMP:  64; 6HR MAX TEMP:  75; 6HR PCP: TRACE;

SARATOGA       FAIR      63  43  48 SE6       30.22F
LARAMIE        LGT RAIN  57  42  57 SE13      30.28S
6HR MIN TEMP:  55; 6HR MAX TEMP:  69; 6HR PCP:  0.02;

CHEYENNE       CLOUDY    62  46  55 S10       30.25S
6HR MIN TEMP:  61; 6HR MAX TEMP:  68;

TORRINGTON     FAIR      70  46  42 SE17      30.14S
6HR MIN TEMP:  68; 6HR MAX TEMP:  77;

PINE BLUFFS    FAIR      68  43  40 S12G25    30.23R

$$




USA.gov is the U.S. government's official web portal to all federal, state and local government web resources and services.